Powrót do katalogu

COSMOS 1159

AktywnyMilitariaLEO
NORAD 11694·PAYLOAD·🇷🇺 Russia

Wystrzelony Feb 11, 1980 z Plesetsk Cosmodrome

Loading…

Następne Przeloty (najbliższe 24 godziny)

TLE

ŚwieżeSource: Space-Track

Epoka: Sep 14, 2026, 13:42 UTC

1 11694U 80012D   26257.57112453 -.00000007  00000-0  55281-4 0  9995
2 11694  74.0215 197.3987 0017632 141.9119 329.5812 12.50128563126148

Śledź COSMOS 1159 w czasie rzeczywistym z AllMySat

Download on the App Store